This is the latest recevied weather packets stored in our database for station/object KG5APU. If no packets are shown the sender has not sent any weather packets the latest 10 day(s).
| Time | Temp. | Humidity | Pressure | Rain* | Wind** | Luminosity | Snow |
|---|---|---|---|---|---|---|---|
| 1777834906 | 26.67° C | 38% | 1019.7 hPa | 0 mm | - | 886 W/m² | - |
| 1777834304 | 26.67° C | 42% | 1019.9 hPa | 0 mm | - | 853 W/m² | - |
| 1777833702 | 27.22° C | 38% | 1020 hPa | 0 mm | - | 842 W/m² | - |
| 1777833102 | 26.11° C | 38% | 1020.3 hPa | 0 mm | - | 849 W/m² | - |
| 1777832498 | 26.11° C | 40% | 1020.4 hPa | 0 mm | - | 850 W/m² | - |
| 1777831897 | 26.11° C | 40% | 1020.7 hPa | 0 mm | - | 852 W/m² | - |
| 1777831298 | 26.11° C | 41% | 1020.9 hPa | 0 mm | - | 846 W/m² | - |
| 1777830698 | 26.11° C | 43% | 1020.9 hPa | 0 mm | - | 835 W/m² | - |
| 1777830097 | 25.56° C | 44% | 1021.1 hPa | 0 mm | - | 839 W/m² | - |
| 1777829495 | 25.56° C | 42% | 1021.1 hPa | 0 mm | - | 833 W/m² | - |
| 1777828895 | 25.56° C | 43% | 1021.1 hPa | 0 mm | - | 826 W/m² | - |
| 1777828295 | 25.56° C | 45% | 1021.5 hPa | 0 mm | - | 813 W/m² | - |
| 1777827694 | 25° C | 46% | 1021.6 hPa | 0 mm | - | 802 W/m² | - |
| 1777827093 | 25° C | 47% | 1022 hPa | 0 mm | - | 789 W/m² | - |
| 1777826492 | 25° C | 44% | 1021.8 hPa | 0 mm | - | 774 W/m² | - |
| 1777825892 | 24.44° C | 45% | 1021.8 hPa | 0 mm | - | 755 W/m² | - |
| 1777825287 | 23.89° C | 46% | 1022 hPa | 0 mm | - | 734 W/m² | - |
| 1777824685 | 24.44° C | 48% | 1022 hPa | 0 mm | - | 710 W/m² | - |
| 1777824084 | 23.89° C | 47% | 1022.1 hPa | 0 mm | - | 685 W/m² | - |
| 1777823483 | 23.89° C | 49% | 1022.1 hPa | 0 mm | - | 659 W/m² | - |
| 1777822879 | 23.89° C | 47% | 1022.1 hPa | 0 mm | - | 634 W/m² | - |
| 1777822273 | 23.33° C | 51% | 1022.1 hPa | 0 mm | - | 603 W/m² | - |
| 1777821669 | 22.78° C | 53% | 1021.9 hPa | 0 mm | - | 574 W/m² | - |
| 1777821068 | 22.22° C | 54% | 1022.1 hPa | 0 mm | - | 542 W/m² | - |
| 1777820468 | 22.22° C | 56% | 1022.2 hPa | 0 mm | - | 511 W/m² | - |
* Rain latest hour (hover to see other rain measurements)
** Current wind speed in m/s (hover to see current wind gust speed)